Regional Weather Roundup
Issued by NWS

Home | Current Version | Previous Version | Graphics & Text | Print | Product List | Glossary On
Versions: 1 2 3 4 5 6 7 8 9 10 11 12 13 14 15 16 17 18 19 20 21 22 23 24 25 26 27 28 29 30 31 32 33 34 35 36 37 38 39 40 41 42 43 44 45 46 47 48 49 50
000
ASUS43 KLOT 220708
RWRIL

ILLINOIS REGIONAL WEATHER ROUNDUP
NATIONAL WEATHER SERVICE CHICAGO/ROMEOVILLE IL
100 AM CST SUN JAN 22 2017

NOTE: "FAIR" INDICATES FEW OR NO CLOUDS BELOW 12,000 FEET WITH NO
SIGNIFICANT WEATHER AND/OR OBSTRUCTIONS TO VISIBILITY.

* THESE STATIONS ARE NOT UNDER NWS QUALITY CONTROL. THEY ALSO MAY NOT
  REPORT WEATHER SUCH AS PRECIPITATION OR FOG.

ILZ001-002-007-009-015-016-024-220800-
NORTHWEST ILLINOIS

CITY           SKY/WX    TMP DP  RH WIND       PRES   REMARKS
MOLINE         PTCLDY    39  35  86 CALM      29.58S
STERLING*      FOG       33  33 100 CALM      29.58F VSB 1/4
SAVANNA*       CLOUDY    37  36  99 CALM      29.58F FOG
$$

ILZ003-004-008-010-011-017-018-220800-
NORTH CENTRAL ILLINOIS

CITY           SKY/WX    TMP DP  RH WIND       PRES   REMARKS
ROCKFORD       FOG       41  39  93 CALM      29.59F VSB 1
FREEPORT*      CLOUDY    38  38  99 SW7       29.59S FOG     WCI  32
ROCHELLE*      FOG       35  35 100 CALM      29.59F VSB<1/4
DE KALB*       FOG       38  37  99 CALM      29.59F VSB<1/4
$$

ILZ005-006-012>014-019>023-220800-
NORTHEAST ILLINOIS

CITY           SKY/WX    TMP DP  RH WIND       PRES   REMARKS
CHICAGO-OHARE  CLOUDY    42  41  96 NW6       29.58F FOG
CHICAGO-MIDWAY FOG       42  40  92 NW6       29.60S VSB 1/4
AURORA         FOG       41  39  93 E3        29.59F VSB 1/4
LANSING*       MOCLDY    35  35 100 NW5       29.60R FOG     WCI  31
JOLIET*        FOG       42  42 100 CALM      29.60S VSB 1/2
WAUKEGAN       FOG       40  40 100 W6        29.57F VSB 1/4
DUPAGE AIRPORT FOG       41  39  93 CALM      29.58F VSB 1/4
KANKAKEE*      FOG       38  37  98 CALM      29.59F VSB 3/4
WHEELING       CLOUDY    42  41  96 CALM      29.60F FOG
MORRIS*        FOG       38  38  97 CALM      29.59F VSB 1
ROMEOVILLE*    FOG       40  40 100 NE5       29.59F VSB 1/4
NORTHERLY ISL    N/A     41  39  93 W7          N/A
$$

LMZ740>746-220800-
SOUTHERN LAKE MICHIGAN

STATION/POSITION SKY/WX   TEMP    WIND        PRES    VSBY  WAVE
                          AIR SEA DIR/SP/G                  HT/PER
                          (F)     (DEG/KT/KT) (MB)    (MI)  (FT/S)
HARRISON CRIB              42     310/ 10/ 10   N/A
BURNHAM HARBOR             41     300/  5/ 10   N/A
CALUMET HARBOR                    340/  5/  7 1002.0R
BURNS HARBOR               45     180/  4/  5 1003.0R
MICHIGAN CITY              47     140/  4/  4   N/A
$$

ILZ025>027-034>036-040-047-049-050-058-095>099-220800-
WEST-CENTRAL ILLINOIS

CITY           SKY/WX    TMP DP  RH WIND       PRES   REMARKS
QUINCY         MOCLDY    42  41  96 NE10      29.54F FOG
GALESBURG*     FOG       32  32 100 CALM      29.58S VSB<1/4
MACOMB*        FOG       35  35 100 CALM      29.60F VSB 1/4
JACKSONVILLE*  PTCLDY    44  41  91 NE6       29.55F
PITTSFIELD*    CLEAR     46  44  91 N7        29.55F
$$

ILZ028>032-037-038-041>044-048-051>054-059>061-220800-
CENTRAL ILLINOIS

CITY           SKY/WX    TMP DP  RH WIND       PRES   REMARKS
PONTIAC        FOG       39  39 100 N7        29.60S VSB 1/4 WCI  34
BLOOMINGTON    MOCLDY    42  41  96 N7        29.58F
DECATUR        CLEAR     42  42 100 NE6       29.56F
PEORIA         FOG       39  39 100 NE7       29.59S VSB 1/4 WCI  34
LACON*         FOG       40  40 100 E3        29.59S VSB 1/4
LINCOLN*       CLOUDY    45  43  95 N5        29.56F
SPRINGFIELD    CLOUDY    45  41  86 N6        29.55F
TAYLORVILLE    CLEAR     46  43  88 NE7       29.54F
$$

ILZ033-039-045-046-055>057-062-063-220800-
EAST-CENTRAL ILLINOIS

CITY           SKY/WX    TMP DP  RH WIND       PRES   REMARKS
CHAMPAIGN      CLOUDY    48  43  82 NE7       29.56F
RANTOUL*       CLOUDY    48  44  88 NE3       29.56F
MATTOON        CLOUDY    50  49  96 S3        29.55F
PARIS*         CLOUDY    46  46 100 E3        29.57F FOG
$$

ILZ079-100>102-220800-
SOUTHWEST ILLINOIS

CITY           SKY/WX    TMP DP  RH WIND       PRES   REMARKS
ALTON          CLEAR     50  42  74 E6        29.51F
BELLEVILLE     PTCLDY    48  48 100 CALM      29.48F FOG
CAHOKIA*       CLEAR     50  48  93 CALM      29.50F
SPARTA*        CLEAR     48  48  98 NE3       29.50F
$$

ILZ064>066-069>071-074>076-080>082-084>086-088>090-092>094-220800-
SOUTH-CENTRAL ILLINOIS

CITY           SKY/WX    TMP DP  RH WIND       PRES   REMARKS
CARBONDALE     PTCLDY    47  47 100 NE3       29.47F
CAIRO*         CLOUDY    50  49  97 CALM      29.47S
EFFINGHAM*     CLEAR     47  47 100 N3        29.54F
MARION         CLEAR     48  46  93 N5        29.48F FOG
MT. VERNON     PTCLDY    46  46 100 N5        29.50F
CENTRALIA*     CLEAR     51  51  99 CALM      29.49F
SALEM*         PTCLDY    55  51  85 CALM      29.51F
METROPOLIS*    CLOUDY    49  46  90 CALM      29.47F
$$

ILZ067-068-072-073-078-083-087-091-220800-
SOUTHEAST ILLINOIS

CITY           SKY/WX    TMP DP  RH WIND       PRES   REMARKS
LAWRENCEVILLE  CLOUDY    50  48  93 E5        29.54F
FLORA*         CLOUDY    53  50  91 NE6       29.52F
FAIRFIELD*     CLEAR     53  48  84 CALM      29.49F
HARRISBURG*    PTCLDY    54  49  85 NE5       29.48F
ROBINSON*      CLOUDY    47  46  95 CALM      29.56F
CARMI*         PTCLDY    49  47  92 SE3       29.50F
$$

ABBREVIATIONS USED IN REMARKS
   TC - TEMPERATURE IN CELSIUS
  WCI - WIND CHILL INDEX
   HX - HEAT INDEX
  VSB - VISIBILITY
$$





USA.gov is the U.S. government's official web portal to all federal, state and local government web resources and services.